Probability
28 26 23 19 16 16 19 21 18 15 14 17 21 23 20 17 16 16 15 11 6 4 2 2 2 2 3 4 4 2 1 1 2 4 5 5 8 10
25 23 20 18 16 16 21 24 23 19 16 17 20 21 19 17 15 16 15 11 7 4 2 1 1 1 1 1 1 1 0 0 1 3 4 4 6 7
20 20 19 19 18 18 22 25 26 23 19 17 17 20 21 19 18 18 17 14 11 6 2 0 0 0 0 0 0 0 0 0 1 2 3 3 4 5
17 18 19 20 21 21 20 21 23 23 21 18 18 20 22 22 22 22 20 17 14 8 3 1 0 0 0 0 0 0 0 0 0 1 2 3 3 4
18 18 19 20 21 20 19 19 20 22 22 21 21 21 23 23 22 22 21 19 16 10 5 2 0 0 0 0 0 0 0 0 0 0 1 1 2 2
21 21 21 21 20 19 19 20 21 22 22 23 23 23 25 25 23 22 20 19 16 12 8 4 1 0 0 0 0 0 0 0 0 0 0 0 1 1
24 24 23 22 20 18 17 19 20 20 21 24 25 26 29 28 25 22 18 16 15 14 12 9 5 2 1 1 0 0 0 0 0 0 0 0 0 0
26 26 25 23 21 18 15 14 13 14 17 22 25 27 30 30 27 23 19 17 15 15 15 13 10 7 5 3 1 0 0 0 0 0 0 0 0 0
27 27 26 25 23 21 17 13 11 10 12 16 21 25 28 29 28 25 22 21 19 18 17 15 12 11 10 6 2 0 0 0 0 0 0 0 0 0
27 27 28 26 23 22 21 19 15 12 10 10 14 19 22 24 25 24 23 22 20 18 16 15 13 13 12 8 2 0 0 0 0 0 0 0 0 0
27 26 26 24 20 18 20 22 21 18 14 11 11 13 14 15 18 20 20 20 17 15 16 17 15 14 12 8 3 0 0 0 0 0 0 0 0 0
25 25 22 18 14 12 16 20 21 20 17 14 11 11 12 13 14 16 17 18 17 16 17 17 16 15 13 9 5 1 0 0 0 0 0 0 0 0
21 21 17 12 8 7 10 16 17 17 16 15 14 14 16 17 18 18 19 19 20 20 19 18 16 15 13 10 6 3 1 1 0 0 0 0 0 0
16 16 12 6 3 2 5 9 11 12 14 15 16 18 19 20 22 23 23 23 22 23 22 20 18 16 13 10 8 4 2 1 0 0 0 0 0 0
11 10 6 3 1 0 1 3 5 9 13 16 18 19 20 20 22 24 24 23 22 23 24 24 22 18 15 13 9 5 3 1 1 0 0 0 0 0
9 8 5 3 2 2 3 3 5 8 12 15 18 19 20 20 21 23 22 20 19 21 25 27 25 22 19 15 11 8 5 4 3 1 1 0 1 1
10 12 11 9 8 7 8 9 9 10 12 14 16 18 19 19 21 22 21 19 18 19 23 27 27 24 21 17 12 10 8 8 6 4 3 2 3 3
11 16 18 16 15 14 14 14 14 14 16 16 17 18 18 18 20 20 19 18 17 15 17 21 24 22 18 14 11 10 9 9 8 7 6 5 6 6
12 16 20 20 20 19 19 19 18 19 20 19 19 19 18 18 19 18 16 15 14 12 12 16 19 18 14 10 9 8 9 9 10 9 9 8 7 7
16 17 19 21 22 21 22 22 22 22 21 20 19 20 18 17 18 16 13 10 10 9 10 12 14 14 11 9 8 8 7 8 9 10 10 9 8 7
18 18 19 20 21 21 22 24 25 24 21 19 20 20 18 17 16 14 10 8 7 8 8 9 9 9 9 9 9 9 8 7 7 8 8 8 8 8
18 18 19 19 20 23 25 25 25 22 19 17 17 19 18 16 14 11 7 6 6 6 6 6 7 8 8 9 9 9 8 7 6 5 5 5 6 6
18 19 19 19 21 24 27 27 23 19 16 14 14 16 16 15 12 9 6 5 4 4 4 4 6 8 8 8 8 8 8 7 6 5 4 3 2 2
Wind_Speed
2 2 2 2 2 2 1 1 1 2 2 2 1 2 2 2 4 3 3 5 6 5 5 5 5 5 4 4 4 4 4 5 5 5 6 7 8 8
2 2 2 2 2 2 2 2 1 2 2 1 1 1 1 1 3 2 3 5 6 6 6 5 5 5 4 4 4 4 4 5 5 5 5 6 6 6
3 2 2 3 2 2 2 2 1 1 2 1 1 1 1 1 2 2 2 4 4 7 7 6 6 5 5 4 4 4 5 5 5 5 5 5 6 6
2 2 3 2 2 2 2 2 2 1 2 2 1 1 2 2 2 3 2 3 3 6 8 7 6 6 5 5 5 5 5 5 5 5 5 5 5 6
2 2 3 2 2 2 2 2 2 2 1 2 2 2 1 1 1 2 2 1 3 4 7 7 7 6 6 5 5 4 4 4 4 4 5 5 5 5
2 2 2 2 2 2 2 2 2 2 2 2 2 2 1 1 1 2 2 2 2 3 3 5 6 7 6 6 5 5 4 4 4 4 4 5 5 5
2 2 2 1 1 2 2 2 2 2 2 2 2 1 1 1 2 2 2 1 2 2 2 3 4 4 4 5 5 6 6 5 5 5 5 5 5 5
3 2 2 3 3 3 4 4 3 3 2 2 2 2 2 2 2 2 1 1 2 1 2 2 3 3 4 4 6 8 8 7 7 6 6 6 6 6
3 3 4 3 2 1 3 4 5 6 6 4 4 3 3 2 2 3 3 2 3 2 2 2 2 2 3 4 10 10 9 9 8 7 7 7 6 6
4 4 4 3 3 2 3 3 3 4 5 5 4 4 3 2 3 4 4 3 3 2 3 2 2 2 2 2 8 10 10 10 9 8 7 7 7 6
5 5 4 4 3 3 3 3 3 3 5 5 6 5 5 5 4 2 3 2 3 3 2 2 2 1 1 2 4 9 9 9 9 8 7 7 6 5
4 4 4 4 5 4 3 3 4 4 3 3 3 5 6 6 7 5 4 3 3 3 2 2 2 1 1 1 2 4 5 6 8 8 7 7 6 4
4 4 3 5 5 6 5 4 5 4 4 4 4 4 4 4 4 5 5 4 4 3 2 2 2 2 2 1 1 3 4 4 4 4 6 7 7 5
4 3 1 4 5 7 6 6 6 4 4 4 4 4 4 4 4 4 5 5 5 5 4 3 3 3 2 2 1 2 3 3 4 4 3 5 6 6
4 2 2 5 5 5 8 8 5 4 4 4 5 4 4 3 3 3 4 4 5 5 5 4 4 3 3 3 2 2 2 2 3 3 3 4 4 4
5 4 4 6 6 6 5 5 5 5 5 5 4 4 2 2 2 2 3 3 3 3 4 4 5 4 3 3 2 2 2 3 3 3 3 3 3 4
3 4 3 2 3 3 3 4 4 5 5 4 4 3 3 2 2 2 2 2 3 3 3 3 4 3 3 2 3 3 3 3 3 3 3 3 3 3
3 4 4 4 4 4 4 4 4 4 4 4 4 3 3 3 3 2 2 3 3 3 3 2 3 2 2 2 3 3 3 3 2 2 2 2 2 2
4 5 4 4 4 4 4 4 4 4 4 4 4 4 3 3 3 3 3 3 4 3 3 3 3 3 4 4 3 4 4 3 2 2 2 2 3 3
5 5 4 4 3 3 4 4 4 4 3 4 4 4 4 4 3 4 3 4 3 2 2 2 3 4 4 4 2 2 6 5 4 3 3 2 1 1
4 4 3 3 3 3 4 4 4 3 3 3 3 3 3 3 3 3 3 4 3 3 3 3 3 4 3 2 2 2 2 5 5 4 3 3 2 2
3 3 3 3 4 3 3 3 3 3 2 2 2 3 2 2 3 3 3 3 3 3 3 2 2 2 2 3 3 3 2 2 2 2 3 4 3 4
2 3 3 4 4 2 2 2 3 2 2 2 2 2 2 2 3 2 2 3 3 3 3 2 2 2 3 3 2 2 2 2 2 2 1 3 4 5
Wind_Direction
279 279 285 290 294 295 277 234 222 247 259 222 190 191 174 151 157 169 162 171 184 186 195 202 207 211 216 214 216 222 222 225 226 225 222 222 219 216
270 284 287 286 286 281 273 271 246 229 261 263 200 151 148 206 169 183 175 165 186 196 195 196 202 204 207 214 216 218 220 221 220 218 216 214 207 205
266 260 267 275 290 294 287 279 264 236 246 273 277 193 173 209 179 211 187 182 190 196 190 191 200 206 207 217 222 222 222 221 219 216 212 208 201 198
270 270 272 274 275 290 300 296 283 249 224 250 268 263 231 213 210 224 210 205 183 189 189 193 197 202 205 208 214 217 215 215 215 216 210 206 201 199
268 267 274 276 282 290 282 283 281 283 231 228 246 240 231 231 236 245 223 208 209 185 181 186 194 203 207 206 207 205 203 204 208 212 210 207 204 201
269 274 283 277 273 277 273 283 286 282 268 246 242 233 233 251 242 244 235 217 226 210 182 184 193 200 205 201 199 195 192 192 197 201 201 200 201 202
260 255 253 260 268 262 270 274 277 273 271 264 257 249 239 247 255 257 252 242 238 207 179 193 184 192 201 205 205 202 197 192 191 194 195 195 199 204
264 261 234 219 221 230 235 242 241 249 261 259 263 263 257 248 255 266 264 258 264 232 202 225 189 193 194 195 199 196 195 196 195 195 198 199 200 203
256 260 268 251 212 222 245 237 239 238 232 236 252 257 257 252 254 265 262 259 259 242 217 236 218 219 212 189 183 189 195 198 200 201 200 201 200 202
253 250 250 248 242 236 249 251 247 241 231 227 240 253 255 243 235 243 251 253 248 237 208 222 225 227 218 178 187 188 195 199 202 203 202 202 202 206
250 249 237 227 226 221 232 251 261 265 260 250 240 242 243 244 236 244 249 236 251 245 207 210 227 220 214 196 190 192 196 200 203 204 203 204 203 204
248 237 225 222 204 204 226 247 254 260 274 276 262 251 241 240 227 218 232 237 241 249 212 197 225 217 233 207 170 179 196 204 205 204 206 205 196 195
259 251 221 202 208 213 225 240 246 263 273 265 257 247 234 228 217 212 217 226 233 242 209 175 215 218 215 216 188 185 183 179 184 201 212 209 205 201
266 274 250 195 205 220 228 241 247 253 262 264 262 253 241 233 222 213 212 218 221 233 225 199 207 209 215 225 221 193 181 177 178 183 186 191 208 217
280 306 277 235 227 227 229 237 239 238 245 252 254 252 246 239 227 217 216 217 222 234 230 214 211 207 211 223 225 195 178 192 191 182 182 185 190 191
268 275 249 235 237 244 238 235 232 234 235 243 252 255 244 241 236 224 229 224 225 235 228 208 205 203 215 224 213 210 197 197 197 190 188 190 191 196
265 255 241 221 223 230 232 226 228 234 237 246 255 258 255 248 248 238 226 230 234 233 224 208 202 196 202 215 218 213 208 213 205 185 183 195 198 200
239 252 251 245 238 239 241 239 231 235 242 240 239 242 247 245 251 252 236 235 240 241 238 224 194 188 209 249 226 218 212 212 207 193 192 200 211 196
223 248 249 245 246 248 245 246 241 234 233 240 238 236 236 236 240 243 238 240 242 241 237 220 201 201 221 233 235 207 206 210 205 208 208 208 213 203
238 247 250 256 256 258 258 253 247 237 230 235 239 240 236 231 235 243 244 246 246 244 244 229 208 208 217 228 232 231 209 203 197 207 207 191 213 188
251 261 263 263 261 258 261 263 260 250 244 245 245 242 238 233 234 244 247 254 246 237 240 236 228 210 196 183 204 239 224 208 199 195 185 184 205 211
256 266 271 273 272 271 266 264 268 272 272 262 263 262 258 251 246 240 246 254 246 247 253 252 224 192 202 205 218 221 218 202 199 208 216 203 197 209
273 282 284 282 283 285 282 282 285 282 276 274 279 268 260 257 258 248 235 241 243 244 250 247 226 214 217 202 208 223 221 201 200 192 234 245 213 200